Retour au catalogue

STARLINK-4487

ActifCommunicationsVLEO
NORAD 53531·PAYLOAD·🇺🇸 United States

Lancé Aug 19, 2022 depuis Cape Canaveral Space Force Station

Loading…

Prochains Passages (prochaines 24 heures)

TLE

FraisSource: CelesTrak SupGP

Époque: Sep 14, 2026, 20:07 UTC

1 53531C 22101E   26257.83868056 -.00015503  00000+0 -49869-3 0  2570
2 53531  53.1575 294.1585 0001094  82.4128 240.7954 15.31700723    19

Suivez STARLINK-4487 en temps réel avec AllMySat

Download on the App Store